CZ-2D R/B

Satellite information

Favourite Embed

Satellite Type and Status

ROCKET BODYIN ORBIT

Key statistics

Satellite CZ-2D R/B at a glance.

Uptime

631

Days in orbit

Revolutions

≈ 14.3

Per day

Orbit

SSO

Sun Synchronous Orbit

Inclination

98.5

Latest

Satellite identification and parameters

Extended collection of information and parameters for CZ-2D R/B.

Object identification

Identified? True

Debris? False

Object name: CZ-2D R/B

International designator: 2023-159B

Object number (NORAD): 58074

Object ID (CCSDS): 58074

Country: PEOPLES REPUBLIC OF CHINA (PRC)

Current information (Y/N): Y

RCS size: LARGE

Orbital parameters

Period: 100.761 minutes

Inclination: 98.4712 deg

SMA: 7172.789 km

Apoapsis: 865.172 km

Periapsis: 724.136 km

RAAN: 205.1801 deg

Eccentricy: 0.0098313

Argument of periapsis: 227.115 deg

Mean anomaly: 132.1747 deg

Mean motion: 14.29126606 rev/day

Mean motion (dot): 0.00000074 rev/day2

B* drag term: 0.000043908 1/REarth

Two-line elements (TLE)

Creation date: July 6, 2025, 6:05 p.m.

Reference frame: TEME

Reference center: EARTH

Epoch: July 6, 2025, 2:09 p.m. UTC

TLE line 0: 0 CZ-2D R/B

TLE line 1: 1 58074U 23159B 25187.59001025 .00000074 00000-0 43908-4 0 9998

TLE line 2: 2 58074 98.4712 205.1801 0098313 227.1150 132.1747 14.29126606 90041

Live tracking on map

Real-time ground track for satellite CZ-2D R/B.

In-orbit conjunctions

A list of the most updated potential collisions computed for object CZ-2D R/B.

Target Orbit TCA Probability of collision Miss distance Type
CZ-6A DEB SSO 2025-05-21 18:48:15 0.0001412965 315.0 (m) DEBRIS
IRIDIUM 33 DEB LEO 2025-02-28 15:47:30 0.0001325091 575.0 (m) DEBRIS
DELTA 1 DEB SSO 2025-01-26 01:09:01 0.0003480037 26.0 (m) DEBRIS
SCOUT A DEB SSO 2024-07-23 17:23:33 0.0001215704 115.0 (m) DEBRIS

Associated space launch

The Yunhai-1 satellite is designed for detecting environmental elements in the atmosphere and ocean, the space environment, disaster prevention and reduction, and scientific experimentation. It is made by the Shanghai Institute of Spaceflight Technology.

CZ-2D R/B was lifted into orbit during the mission ‘Long March 2D | Yunhai-1-04’, on board a Long March 2D space rocket.

The launch took place on Oct. 15, 2023, 12:54 a.m. from Launch Area 4 (SLS-2 / 603).

For more information about the launch, click the button.

Launch to space Long March 2D | Yunhai-1-04
Long March 2D | Yunhai-1-04

Agency: N/A

Status: Launch Successful

Launch date: Oct. 15, 2023, 12:54 a.m. UTC

Rocket: Long March 2D

Launch pad: Launch Area 4 (SLS-2 / 603)

Location: Jiuquan Satellite Launch Center, People's Republic of China

...

Latest news about this satellite

News about space launch
China launches new Yunhai remote sensing satellite

China added to its series of Yunhai remote sensing satellites late Saturday with a launch from the Gobi Desert.


Newsletter sign-up

Weekly statistics, charts and insights to help you stay on top of the space industry.